Location: Allos
(44.2333°N, 6.6333°E)
Time: 10:25:15
(UTC+00:00)

Daily predictions for brighter satellites

Satellite Brightness Start Highest point End
(mag) Time Altitude Azimuth Time Altitude Azimuth Time Altitude Azimuth
Cosmos 1741 Rocket 4.5 17:13:20 10° S 17:18:19 43° ESE 17:23:21 10° NNE
In-Cosmos 22 Rocket 4.3 17:13:38 10° S 17:19:24 68° E 17:25:11 10° NNE
SL-08 RB Rocket 4.4 17:18:43 10° S 17:23:18 63° W 17:27:57 10° NNW
SL-16 R/B 3.3 17:19:31 10° SW 17:24:56 45° WNW 17:30:23 10° NNE
CZ-4C R/B 3.6 17:26:01 10° NNE 17:29:27 37° E 17:32:45 10° SSE
COSMOS 2428 3.6 17:26:37 10° SSE 17:31:23 29° ESE 17:36:11 10° NE
Cosmos 2333 4.2 17:27:22 10° SSW 17:32:55 68° ESE 17:38:34 10° NNE
Lacrosse 5 3.1 17:28:35 10° W 17:33:17 35° NNW 17:37:59 10° NE
Cosmos 1633 2.3 17:31:17 10° S 17:34:37 86° E 17:37:59 10° N
IRIDIUM 114 4.5 17:33:10 10° N 17:38:17 52° E 17:43:22 10° SSE
SL-4 R/B 2.2 17:36:17 10° NW 17:39:38 41° NNE 17:42:44 13° E
ADEOS 4.5 17:38:49 10° S 17:43:54 54° W 17:49:02 10° NNW
Atlas Centaur 2 4.3 17:40:48 10° SW 17:46:59 29° S 17:53:49 10° ESE
IRIDIUM 103 4.3 17:42:18 10° N 17:47:30 63° E 17:52:39 10° SSE
CZ-4 R/B 4.4 17:45:34 10° SSE 17:49:40 82° ENE 17:53:49 10° N
Cosmos 1386 Rocket 4.5 17:44:57 10° N 17:50:53 56° ENE 17:56:50 10° SSE
Okean O Rocket 2.6 17:48:58 10° ESE 17:52:32 25° ENE 17:56:09 10° NNE
Cosmos 2322 3.8 17:47:34 10° S 17:53:08 58° ESE 17:58:45 10° NNE
Cosmos 1825 3.5 17:50:36 10° SSW 17:54:05 40° WNW 17:57:36 10° N
CZ-4 R/B 2.3 17:51:57 10° SE 17:55:22 26° ENE 17:58:45 10° NNE
SKYMED 2 3.7 17:52:41 10° N 17:57:03 77° WNW 18:01:22 10° SSW
YAOGAN 1 2.8 17:53:15 10° SE 17:57:21 46° ENE 18:01:30 10° N
Cosmos 1745 Rocket 4.0 17:53:01 10° N 17:59:11 60° E 18:05:14 10° SSE
RESURS DK-1 4.2 17:57:57 10° NW 18:01:41 34° WSW 18:05:24 10° S
Okean 1-7 Rocket 3.9 17:57:47 10° SSE 18:01:59 44° E 18:06:15 10° NNE
Cosmos 2058 Rocket 3.2 17:59:57 10° N 18:04:23 80° W 18:08:49 10° S
IRIDIUM 106 4.3 18:00:32 10° N 18:05:47 90° W 18:11:01 10° S
Cosmos 1844 Rocket 4.3 18:01:21 10° NW 18:06:25 37° WSW 18:11:27 10° S
Cosmos 2058 4.0 18:03:49 10° SE 18:07:09 23° E 18:07:42 23° ENE
PAYLOAD B 4.1 18:02:16 10° SSE 18:07:45 76° ENE 18:13:15 10° NNW
Cosmos-2242 3.6 18:08:43 10° N 18:12:33 32° ENE 18:15:38 14° SE
Cosmos 1340 3.4 18:09:12 10° NNW 18:12:48 53° W 18:16:22 10° S
Cosmos 44 Rocket 3.9 18:08:42 10° SW 18:13:17 53° NW 18:18:00 10° NNE
Cosmos 1174 4.5 18:07:34 10° SSW 18:13:20 63° ESE 18:16:57 17° NE
USA 215 3.3 18:08:05 10° SE 18:14:37 85° SW 18:21:13 10° NW
Cosmos 1709 Rocket 4.0 18:10:58 10° N 18:16:57 53° ENE 18:22:53 10° SSE
PSLV R/B 3.6 18:16:16 10° SSE 18:19:56 90° ENE 18:23:43 10° NNW
Feng Yun 1-1 Rocket 4.4 18:16:39 10° SE 18:21:53 47° ENE 18:27:04 10° N
Spot 1 4.1 18:25:36 21° NE 18:28:01 47° E 18:31:59 10° S
CZ-4B R/B 3.1 18:23:05 10° SSE 18:28:27 80° ENE 18:33:58 10° NNW
Cosmos 2219 Rocket 2.7 18:25:54 10° SW 18:31:25 59° WNW 18:36:59 10° NNE
Cosmos 883 Rocket 4.4 18:28:05 10° S 18:34:19 73° E 18:40:40 10° NNE
DMSP B5D1-3 4.4 18:29:11 10° NNE 18:34:20 78° ESE 18:39:27 10° S
ATLAS 5 CENTAUR R/B 4.1 18:33:08 10° N 18:34:36 11° NNE 18:34:47 11° NNE
Cosmos 2360 Rocket 4.0 18:30:19 10° WSW 18:35:08 28° NW 18:40:01 10° N
Cosmos 1602 Rocket 3.4 18:32:08 10° S 18:36:24 69° E 18:40:43 10° NNE
BlueWalker 3 2.1 18:33:22 10° NW 18:37:11 51° NNE 18:37:33 49° NE
Cosmos 1814 Rocket 4.2 18:35:28 10° NNW 18:40:49 75° WSW 18:46:08 10° SSE
Cosmos 1606 3.3 18:37:53 10° NNW 18:41:39 58° W 18:45:23 10° S
SJ-6B 4.0 18:44:58 28° NNE 18:44:58 28° NNE 18:47:11 10° N
SL-24 R/B - RUBIN 2 4.3 18:40:47 10° S 18:43:50 33° SSE 18:43:50 33° SSE
Lacrosse 5 rocket 4.0 18:44:03 10° W 18:46:04 14° SW 18:48:06 10° SSW
Cosmos 2237 Rocket 2.4 18:40:44 10° S 18:46:05 44° ESE 18:46:55 42° E
IGS 5A 3.3 18:46:58 60° ESE 18:47:22 64° ENE 18:51:28 10° N
Cosmos 1758 Rocket 3.4 18:46:56 10° S 18:51:16 86° E 18:55:40 10° N
Cosmos 2278 Rocket 2.1 18:46:23 10° NNW 18:52:02 65° ENE 18:53:55 41° SE
NOSS 0 Rocket 3.8 18:46:11 10° SSW 18:52:22 70° ESE 18:56:15 24° NE
Cosmos 1356 Rocket 3.1 18:48:55 10° S 18:52:52 90° ESE 18:53:48 52° N
Cosmos 1812 Rocket 3.5 18:49:32 10° N 18:54:02 86° WSW 18:58:26 10° S
Cosmos 1980 3.7 18:51:36 10° S 18:57:07 58° ESE 18:58:04 51° ENE
CSL-04 Debris 4.1 18:58:39 46° SE 19:00:04 64° ENE 19:05:25 10° N
BREEZE-M DEB (TANK) 3.6 18:56:14 10° WNW 19:00:16 79° SSW 19:04:18 34° ESE
Cosmos 2333 Rocket 4.1 18:56:24 10° WSW 19:01:11 27° NW 19:06:01 10° N
CSL-04 Rocket 3.6 19:01:24 57° E 19:01:45 59° ENE 19:07:05 10° N
Cosmos 2369 Rocket 4.4 19:01:06 10° NNE 19:01:37 11° NNE 19:01:37 11° NNE
Cosmos 1943 Rocket 3.2 19:03:17 10° N 19:06:56 30° NNE 19:06:56 30° NNE
Cosmos 968 Rocket 4.5 19:10:18 10° SW 19:15:17 45° WNW 19:20:14 11° N
COSMOS 2428 3.7 19:09:59 10° SW 19:15:23 45° WNW 19:20:23 12° NNE
Lacrosse 5 3.7 19:13:51 10° NW 19:17:33 20° N 19:18:14 19° N
SL-4 R/B 3.3 19:15:30 10° WNW 19:18:05 35° WSW 19:18:05 35° WSW
Cosmos 2208 Rocket 4.1 19:14:53 10° NNW 19:20:03 71° WSW 19:21:18 50° S
Meteor 2-2 Rocket 4.4 19:22:23 10° NNW 19:28:04 73° W 19:30:32 35° S
Okean O Rocket 3.2 19:24:42 10° SSW 19:28:42 34° W 19:32:46 10° NNW
CZ-4 R/B 3.4 19:26:42 10° SSW 19:30:10 27° W 19:33:38 10° NW
Lacrosse 4 Rocket 4.0 19:28:11 10° NNW 19:28:37 12° N 19:28:37 12° N
Atlas Centaur 2 4.3 19:29:14 10° WSW 19:35:34 26° SSW 19:37:36 24° S
Cosmos 2237 Rocket 4.0 20:25:16 10° WSW 20:28:51 28° W 20:28:51 28° W
Cosmos 2278 Rocket 4.4 20:31:37 10° NW 20:35:33 20° W 20:35:51 19° WSW
